Regional Weather Roundup
Issued by NWS Sterling, VA

Home | Current Version | Previous Version | Graphics & Text | Print | Product List | Glossary On
Versions: 1 2 3 4 5 6 7 8 9 10 11 12 13 14 15 16 17 18 19 20 21 22 23 24 25 26 27 28 29 30 31 32 33 34 35 36 37 38 39 40 41 42 43 44 45 46 47 48 49 50
000
ASUS41 KLWX 191310
RWRLWX

REGIONAL WEATHER ROUNDUP
NATIONAL WEATHER SERVICE BALTIMORE MD/WASHINGTON DC
900 AM EDT SUN OCT 19 2014

Note: "FAIR" indicates few or no clouds below 12,000 feet
with no significant weather and/or obstructions to visibility.
 TC=TEMPERATURE CELSIUS

 * =Non NWS site. Station does not report precipitation (e.g. rain,
    snow, etc.), thunder, or fog.

DCZ001-MDZ009-015-VAZ040>042-051-053>054-191400-
WASHINGTON METRO

CITY           SKY/WX    TMP DP  RH WIND       PRES   REMARKS
WASHINGTON NAT PTSUNNY   52  33  48 NW20G28   30.05R
DULLES         PTSUNNY   47  33  58 NW22G32   30.06R
ANDREWS AFB    CLOUDY    50  35  54 NW16G22   30.02R
FT BELVOIR     CLOUDY    51  35  53 NW14G24   30.05R
QUANTICO       PTSUNNY   51  32  48 NW16G24   30.07R
COLLEGE PARK*  CLOUDY    52  36  54 NW14G21   30.04R
LEESBURG*      CLOUDY    48  34  57 N18G33    30.08R
MANASSAS*      CLOUDY    52  34  50 NW15      30.07R
GAITHERSBURG*  PTSUNNY   46  32  57 NW12G20   30.08R

$$

MDZ006>007-011-014-191400-
BALTIMORE METRO

CITY           SKY/WX    TMP DP  RH WIND       PRES   REMARKS
BWI AIRPORT    PTSUNNY   51  35  54 NW18G24   30.02R
MD SCIENCE CTR   N/A     51  34  52 MISG      30.02R
MARTIN STATE   CLOUDY    52  39  62 W16G25    30.01R
ANNAPOLIS      CLOUDY    52  37  56 NW16G26   30.01R
FORT MEADE*    PTSUNNY   50  34  53 NW14G22   30.06R

$$

MDZ012-015-019>023-191400-
MARYLAND EASTERN SHORE

CITY           SKY/WX    TMP DP  RH WIND       PRES   REMARKS
OCEAN CITY     PTSUNNY   52  40  63 NW14G21   29.95R
SALISBURY      MOSUNNY   55  38  52 NW18G28   29.96R
BAY BRIDGE AP*   N/A     52  36  54 NW18G30   30.00R
CAMBRIDGE*     CLOUDY    54  39  58 NW16G25   29.99R
EASTON*        CLOUDY    54  41  62 NW12G24   30.02R

$$

MDZ017>025-191400-
SOUTHERN MARYLAND

CITY           SKY/WX    TMP DP  RH WIND       PRES   REMARKS
PATUXENT RIVER PTSUNNY   53  38  56 NW20      30.00R
ST INIGOES     PTSUNNY   52  35  52 NW13G24   30.01R
LEONARDTOWN*   PTSUNNY   50  34  53 NW14      30.03R

$$

MDZ003>005-191400-
NORTH CENTRAL MARYLAND

CITY           SKY/WX    TMP DP  RH WIND       PRES   REMARKS
FREDERICK*     NOT AVBL
HAGERSTOWN APT MOSUNNY   45  28  51 NW17      30.06R
WESTMINSTER*   PTSUNNY   46  32  57 NW14G22   30.02R

$$

MDZ501>502-191400-
WESTERN MARYLAND

CITY           SKY/WX    TMP DP  RH WIND       PRES   REMARKS
OAKLAND*       CLOUDY    32 N/A N/A NW9       30.08R FOG     WCI  24
CUMBERLAND*    PTSUNNY   45  32  61 N6        30.15R

$$

VAZ025>031-191400-
SHENANDOAH VALLEY

CITY           SKY/WX    TMP DP  RH WIND       PRES   REMARKS
WINCHESTER*    MOSUNNY   46  28  49 NW18G30   30.07R
FRONT ROYAL*   CLOUDY    46  32  57 W9        30.08R
LURAY*         FAIR      48  32  53 N9G24     30.08R
NEW MARKET*    FAIR      47  31  53 N9        30.08R
STAUNTON*      SUNNY     48  33  55 N8        30.09R
WAYNESBORO*    CLOUDY    46  36  68 CALM      30.06R

$$

WVZ021-048>050-054>055-191400-
EASTERN WEST VIRGINIA PANHANDLE

CITY           SKY/WX    TMP DP  RH WIND       PRES   REMARKS
MARTINSBURG    PTSUNNY   46  28  49 NW8       30.09R
PETERSBURG*    SUNNY    N/A N/A N/A NW9G16    30.12S

$$

VAZ036>039-050-191400-
CENTRAL FOOTHILLS

CITY           SKY/WX    TMP DP  RH WIND       PRES   REMARKS
CHARLOTTESVILL SUNNY     52  34  50 N13G21    30.05R
CULPEPER*      SUNNY     52  32  46 N14G23    30.07R
ORANGE*        SUNNY     52  36  54 NW8       30.07R
GORDONSVILLE*  FAIR      51  34  51 NW9       30.06R
WARRENTON*     PTSUNNY   53  40  61 N8        30.07R

$$

VAZ055>057-191400-
NORTH AND CENTRAL PIEDMONT

CITY           SKY/WX    TMP DP  RH WIND       PRES   REMARKS
FREDERICKSBRG* MOSUNNY   53  37  54 NW13G18   30.05R
STAFFORD*      SUNNY     49  32  50 NW23G32   30.10R

$$

NCZ024-NYZ072-PAZ021-071-VAZ022-071-191400-
OTHER REGIONAL OBSERVATIONS

CITY           SKY/WX    TMP DP  RH WIND       PRES   REMARKS
NEW YORK CITY  CLOUDY    51  37  58 VRB6G17   29.90R
PHILADELPHIA   PTSUNNY   51  36  56 NW15G22   29.95R
PITTSBURGH     PTSUNNY   42  36  79 W5        30.14R
ROANOKE        MOSUNNY   49  34  56 NW12      30.12R
RICHMOND       MOSUNNY   55  40  56 NW13      30.04R
RALEIGH        SUNNY     52  41  66 NW3       30.10R

$$

ANZ530>537-191400-
MARINE OBSERVATIONS

STATION/POSITION TIME  TEMP    WIND        PRES
                       AIR SEA DIR/SP/G
                 (UTC) (F)     (DEG/KT/KT) (MB)
THOMAS PT LIGHT  1300   51 64  320/ 19/ 24 1016.9R

$$




USA.gov is the U.S. government's official web portal to all federal, state and local government web resources and services.